Volver al catálogo

STARLINK-31933

ActivoComunicacionesVLEO
NORAD 59874·PAYLOAD·🇺🇸 United States

Lanzado May 24, 2024 desde Cape Canaveral Space Force Station

Loading…

Próximos Pases (próximas 24 horas)

TLE

ActualizadoSource: CelesTrak SupGP

Época: Sep 14, 2026, 21:26 UTC

1 59874C 24098S   26257.89354167  .00001888  00000+0  68365-4 0  2574
2 59874  43.0010 289.4154 0001585 266.6819  74.9800 15.27577130    10

Sigue STARLINK-31933 en tiempo real con AllMySat

Download on the App Store